Simultaneous Nadir Overpasses (SNOs) Predictions

Prediction of SNOs between METOP-B and TERRA Satellite Orbit:

Table of predicted SNOs for the next 14.0 days since TLE Epoch: 7/19/2015
Index Date (METOP-B) Time (METOP-B) Lat,Lon (METOP-B) SZA (METOP-B ) Date (TERRA) Time (TERRA) Lat,Lon (TERRA) SZA (TERRA ) Distance(km) Time Diff (sec)
1 07/19/2015 02:23:29 81.32,-167.90 63.21 07/19/2015 02:22:26 81.32,-167.97 63.17 1.21 63
2 07/21/2015 21:07:10 -81.31, 90.81 116.32 07/21/2015 21:07:14 -81.32, 90.83 116.32 0.49 4
3 07/21/2015 21:57:50 81.32,-101.57 63.72 07/21/2015 21:56:40 81.32,-101.43 63.71 2.41 70
4 07/24/2015 15:50:52 81.31, -10.55 64.18 07/24/2015 15:52:03 81.30, -10.65 64.20 1.83 71
5 07/24/2015 16:41:32 -81.31, 157.15 115.77 07/24/2015 16:41:29 -81.32, 157.32 115.75 2.98 3
6 07/
